Tracking 19181 objects as of 17-Jun-2018
HD Live streaming from Space Station
objects crossing your sky now

FENGYUN 1C DEB

Track FENGYUN 1C DEB now!
10-day predictions


NORAD ID: 31243
Int'l Code: 1999-025BLZ
Perigee: 847.8 km
Apogee: 944.5 km
Inclination: 99.0 °
Period: 102.8 minutes
Semi major axis: 7267 km
RCS: 0.0033 m2 (small)
Launch date: May 10, 1999
Source: People's Republic of China (PRC)
Launch site: Taiyaun Space Center, China (TSC)

Note: This is SATELLITE DEBRIS
aabbcc
Your satellite tracking list
Your tracking list is empty




NASA's NSSDC Master Catalog

Two Line Element Set (TLE):
1 31243U 99025BLZ 18168.41860250  .00000864  00000-0  59082-3 0  9993
2 31243  99.0050 236.9265 0066519 236.5450 180.9778 14.01391756573094
Source of the keplerian elements: AFSPC